Location: La Brionne
(46.1728°N, 1.7849°E)
Time: 12:31:08
(UTC+00:00)

Cosmos 2219 Rocket - Pass Details

Date: 29 October 2021
Orbit: 826 x 848 km, 71.0° (Epoch: 01 December)

Event Time Altitude Azimuth Distance (km) Brightness Sun altitude
Rises 20:16:23 0° 251° (WSW) 3,365 5.9 -37.1°
Reaches altitude 10° 20:19:27 10° 268° (W) 2,438 5.2 -37.6°
Maximum altitude 20:23:33 21° 315° (NW) 1,819 4.4 -38.3°
Enters shadow 20:25:19 18° 340° (NNW) 1,953 4.4 -38.5°
